Regional Weather Roundup
Issued by NWS

Home | Current Version | Previous Version | Graphics & Text | Print | Product List | Glossary On
Versions: 1 2 3 4 5 6 7 8 9 10 11 12 13 14 15 16 17 18 19 20 21 22 23 24 25 26 27 28 29 30 31 32 33 34 35 36 37 38 39 40 41 42 43 44 45 46 47 48 49 50
850
ASUS44 KJAN 260603
RWRMS

MISSISSIPPI HOURLY WEATHER ROUNDUP
NATIONAL WEATHER SERVICE JACKSON MS
1200 AM CST MON JAN 26 2015

NOTE: "FAIR: INDICATES FEW OR NO CLOUDS BELOW 12,000 FEET WITH NO
SIGNIFICANT WEATHER AND/OR OBSTRUCTIONS TO VISIBILITY.

MSZ001>002-007>008-010>013-018>021-025>028-034>036-260700-
NORTHWEST MISSISSIPPI

CITY           SKY/WX    TMP DP  RH WIND       PRES   REMARKS
CLARKSDALE     CLOUDY    45  37  76 NW14      29.99R
CLEVELAND      CLOUDY    46  38  76 NW15G21   29.99R
GREENWOOD      CLOUDY    47  35  63 NW15G23   29.97R
6HR MIN TEMP:  47; 6HR MAX TEMP:  54;

GREENVILLE     CLOUDY    48  35  60 NW15      30.00R
6HR MIN TEMP:  47; 6HR MAX TEMP:  56;

GRENADA        CLOUDY    45  34  65 NW10G21   29.95R
OLIVE BRANCH   CLOUDY    41  39  93 NW16G22   29.93R
OXFORD         CLOUDY    41  34  75 NW15G25   29.94R
TUNICA         CLOUDY    43  36  75 NW22      29.98R
$$

MSZ003>006-009-014>017-022>024-029>033-037>039-260700-
NORTHEAST MISSISSIPPI

CITY           SKY/WX    TMP DP  RH WIND       PRES   REMARKS
COLUMBUS AFB   CLOUDY    45  34  66 NW20G29   29.89R
6HR MIN TEMP:  45; 6HR MAX TEMP:  53; 6HR PCP:  0.02;

CORINTH        DRIZZLE   43  37  81 W12       29.86R
GOLDN TRIANGLE CLOUDY    45  36  70 NW14G24   29.89R
STARKVILLE     CLOUDY    45  36  70 NW8G17    29.91R
TUPELO         CLOUDY    44  35  70 NW8       29.89R
6HR MIN TEMP:  44; 6HR MAX TEMP:  47; 6HR PCP:  0.08;

$$

MSZ040-058-260700-
CENTRAL MISSISSIPPI

CITY           SKY/WX    TMP DP  RH WIND       PRES   REMARKS
JACKSON INTL   CLEAR     49  33  54 NW14G24   29.97R
6HR MIN TEMP:  49; 6HR MAX TEMP:  60;

JACKSON HAWKNS CLEAR     49  34  56 N7G16     29.97R
6HR MIN TEMP:  49; 6HR MAX TEMP:  59;

MERIDIAN KEY   PTCLDY    48  34  58 NW8       29.91R
6HR MIN TEMP:  48; 6HR MAX TEMP:  60;

MERIDIAN NAS   MOCLDY    49  36  61 NW10      29.90R
6HR MIN TEMP:  48; 6HR MAX TEMP:  60; 6HR PCP: TRACE;

RAYMOND        FAIR      50  46  87 MISG      29.97S
VICKSBURG      MOCLDY    49  35  58 NW7       30.01R
6HR MIN TEMP:  49; 6HR MAX TEMP:  59;

$$

MSZ059>079-260700-
SOUTH MISSISSIPPI

CITY           SKY/WX    TMP DP  RH WIND       PRES   REMARKS
BROOKHAVEN     FAIR      52  36  54 NW9       29.97S
HATTIESBURG    CLEAR     53  36  52 NW13G18   29.94R
6HR MIN TEMP:  52; 6HR MAX TEMP:  60;

MCCOMB         CLEAR     52  34  50 NW13      29.96R
6HR MIN TEMP:  52; 6HR MAX TEMP:  61;

NATCHEZ        CLEAR     50  34  53 W12G17    30.01S
6HR MIN TEMP:  48; 6HR MAX TEMP:  61;

PINE BELT      CLEAR     45  34  65 W3        29.94R
6HR MIN TEMP:  45; 6HR MAX TEMP:  61;

$$

MSZ080>082-260700-
COASTAL MISSISSIPPI

CITY           SKY/WX    TMP DP  RH WIND       PRES   REMARKS
BILOXI         CLEAR     51  44  75 VRB1      29.94R
6HR MIN TEMP:  51; 6HR MAX TEMP:  57;

PASCAGOULA     CLEAR     51  40  65 W5        29.93R
6HR MIN TEMP:  51; 6HR MAX TEMP:  57;

GULFPORT       CLEAR     53  38  56 W7        29.95R
6HR MIN TEMP:  53; 6HR MAX TEMP:  59;

$$



USA.gov is the U.S. government's official web portal to all federal, state and local government web resources and services.